Wind_Speed
44 44 43 43 42 43 43 43 43 42 41 39 38 36 36 35 35 36 37 38 40 40 40 41 41 41 41 41 41 42 43 45 47 49 53 56 59 61 63 63 60 57
46 46 46 45 45 45 45 45 45 45 44 43 42 41 40 39 39 38 39 40 40 41 41 42 42 43 42 42 42 42 43 44 46 48 51 54 57 60 62 65 66 64
49 49 48 48 47 47 47 47 47 47 47 46 45 45 44 44 43 42 42 41 42 42 42 42 43 43 44 44 44 44 44 44 45 47 49 52 55 58 60 63 65 67
50 50 50 50 50 50 50 50 50 49 49 49 48 48 47 47 46 46 45 45 44 44 44 44 43 44 45 45 45 46 46 45 45 47 48 50 52 55 58 60 63 65
53 52 52 52 53 53 53 53 53 53 52 51 51 50 49 49 49 49 49 48 48 47 46 46 46 45 46 46 47 47 48 48 48 48 49 50 51 53 55 57 60 62
55 54 54 54 55 56 55 55 55 55 55 54 53 53 52 52 51 51 51 51 51 50 50 50 49 48 48 48 48 48 49 50 51 51 51 51 51 52 54 55 57 59
58 57 56 56 57 58 58 58 57 57 57 57 57 56 56 55 55 54 54 53 53 53 53 54 53 53 52 52 51 50 50 51 52 53 53 53 53 53 54 55 56 57
62 61 60 60 60 61 61 61 60 60 60 60 60 59 59 59 58 58 57 57 56 55 55 56 57 57 57 56 55 54 53 53 53 54 54 55 56 56 56 56 57 58
65 65 64 64 63 63 64 63 63 62 62 62 62 62 62 62 62 61 61 60 60 59 59 59 59 60 60 60 59 58 57 57 56 56 56 56 57 58 58 58 58 59
67 68 67 66 66 66 66 66 66 65 65 65 65 65 65 65 64 64 64 63 63 63 62 63 63 63 63 63 63 62 62 61 60 59 59 59 59 59 60 61 61 61
67 69 69 68 68 68 69 69 69 69 69 69 69 68 68 67 67 66 66 66 66 66 66 67 67 67 67 66 66 66 66 66 65 64 63 62 62 62 62 63 63 64
64 67 67 66 66 66 68 69 70 71 72 73 73 72 71 70 70 69 68 68 68 68 69 69 70 71 70 70 69 69 69 69 69 68 68 67 66 65 65 65 65 66
62 64 64 62 61 62 64 67 69 71 73 74 74 74 74 74 73 71 71 71 71 71 72 72 72 73 73 73 72 72 72 72 72 72 72 71 70 69 69 68 68 68
64 64 62 60 60 61 63 65 67 69 72 73 74 75 76 75 74 73 73 74 75 76 76 76 75 75 75 75 75 75 75 74 74 74 75 74 74 74 73 72 72 71
66 65 63 61 61 62 63 64 65 67 69 72 73 74 74 74 73 73 73 75 78 80 80 80 80 79 78 77 77 77 77 77 77 78 78 77 77 77 77 76 76 75
68 68 67 65 63 63 64 64 66 67 69 71 72 72 72 71 70 69 69 71 77 82 81 81 82 82 82 81 80 79 79 79 80 80 81 81 80 80 80 80 80 79
71 71 70 69 67 66 65 65 67 68 70 71 71 70 70 69 68 67 66 68 74 79 80 81 82 84 85 85 85 84 83 81 81 82 83 83 83 83 83 83 83 82
73 73 73 72 71 69 67 67 68 69 71 72 72 70 69 68 66 66 67 70 73 75 76 79 81 84 86 88 88 88 86 84 84 84 84 85 85 85 86 86 86 85
75 75 75 75 74 72 70 70 71 71 72 73 73 72 70 68 67 66 68 71 73 72 73 76 79 82 85 88 90 90 88 87 87 88 88 88 87 87 87 88 88 88
77 77 77 76 76 74 73 72 72 73 73 73 74 74 73 71 69 68 69 71 72 72 72 76 78 80 83 86 87 87 86 87 89 91 91 91 91 91 90 90 90 90
79 79 78 78 78 76 75 74 74 74 75 75 75 75 74 73 72 71 71 72 72 72 73 76 79 81 83 83 82 81 83 85 88 90 91 92 93 94 94 93 92 92
82 82 81 80 80 79 77 76 76 76 76 76 76 76 76 75 74 74 73 73 73 74 75 77 79 81 82 80 79 79 81 84 86 87 88 89 92 94 96 96 95 95
84 83 83 82 82 81 79 78 78 78 77 77 78 78 77 77 76 76 75 75 75 76 76 77 79 81 81 78 77 78 81 83 84 85 85 86 88 91 94 96 96 97
85 84 83 83 82 82 81 80 79 79 79 79 79 79 79 79 79 78 77 77 77 76 78 79 80 81 80 78 77 78 79 80 81 83 83 84 85 87 89 92 94 97
83 82 82 81 81 81 80 80 80 80 80 80 80 80 80 81 80 79 79 78 77 77 78 79 80 79 79 78 77 78 78 78 80 81 81 82 82 83 85 88 91 94
81 80 79 79 78 78 78 78 79 79 79 79 80 80 80 80 80 80 80 80 79 77 77 77 77 78 78 78 78 77 76 76 78 78 78 78 79 81 83 85 87 90
Wind_Direction
253 253 253 254 254 255 255 254 253 252 251 250 249 249 248 247 247 245 243 243 243 244 244 244 244 244 243 242 241 238 233 231 230 229 229 230 231 231 230 229 228 227
252 252 252 252 252 252 253 253 253 253 252 251 251 250 249 248 247 247 245 244 244 244 245 245 245 245 244 243 243 242 239 235 233 232 231 231 231 232 233 233 234 234
252 253 252 252 252 252 252 252 252 252 252 251 251 250 250 249 248 247 247 246 245 244 245 245 245 245 244 243 243 243 243 240 237 235 234 234 233 233 234 235 236 237
252 252 252 252 252 252 252 252 251 251 251 251 250 250 250 250 249 248 247 247 246 246 245 245 245 245 244 244 243 242 243 243 241 239 237 237 237 235 235 236 237 238
252 252 251 251 252 252 251 251 251 251 251 251 251 251 251 251 250 250 249 248 247 247 247 247 246 245 245 245 244 243 242 242 243 242 240 239 239 239 238 237 238 239
255 254 252 252 252 252 251 251 251 250 250 250 251 251 251 251 251 251 251 250 249 248 248 248 248 246 245 244 244 244 243 242 242 242 242 241 240 240 240 240 239 239
256 255 254 253 253 253 252 251 250 250 250 250 250 249 249 249 249 250 250 250 250 249 249 249 249 249 247 246 244 244 244 244 243 243 243 243 242 242 241 242 241 241
256 255 254 253 253 253 253 252 250 250 249 249 249 249 249 248 248 248 248 248 248 249 248 248 248 249 249 248 247 245 245 244 244 244 244 243 243 243 243 242 242 242
256 255 254 253 252 252 252 252 251 251 250 250 249 249 249 248 248 248 247 247 247 248 248 248 248 248 248 248 248 248 247 246 244 244 244 244 244 244 244 243 243 243
256 255 254 253 252 252 252 252 252 251 251 250 250 249 249 249 248 249 249 248 248 248 248 248 247 247 246 246 247 247 247 247 247 245 244 244 244 244 244 244 244 243
255 255 253 252 252 252 253 252 252 252 251 251 250 250 250 249 249 249 249 249 249 249 249 248 248 247 246 245 245 246 246 246 247 246 246 245 244 244 244 243 244 244
255 255 253 253 253 253 254 253 252 252 252 251 251 251 251 251 251 251 251 250 250 250 250 249 248 248 247 246 245 245 245 245 246 246 246 246 246 246 245 245 244 244
256 255 254 252 251 251 252 252 252 251 251 251 251 251 251 250 250 251 252 253 253 252 251 250 249 248 248 247 246 245 245 245 245 246 246 246 246 247 247 247 246 245
257 256 255 253 252 251 251 251 252 252 251 251 250 250 250 250 250 250 251 252 252 252 252 251 250 250 249 248 247 246 246 245 245 245 245 246 246 246 247 247 248 247
260 259 257 255 254 253 253 252 253 253 253 253 252 251 250 250 250 251 251 252 252 251 251 252 252 251 250 249 248 247 246 246 246 246 245 245 245 246 246 246 247 247
262 261 260 258 256 254 254 254 254 254 254 254 254 253 252 251 250 250 251 253 253 251 250 251 252 252 252 251 250 249 247 246 246 246 246 246 245 245 245 246 246 246
263 263 262 261 259 258 257 256 256 256 256 255 255 255 254 253 252 251 250 251 253 253 251 251 251 251 252 251 251 250 249 248 247 247 247 247 246 246 246 246 246 246
263 263 263 263 262 261 260 259 258 258 258 258 257 256 255 254 253 252 252 251 253 255 255 254 253 252 251 251 250 250 249 249 249 249 249 248 248 247 247 247 247 246
262 263 263 264 264 263 262 261 260 260 259 259 260 259 258 256 254 253 253 253 254 254 256 256 255 254 253 252 251 250 250 250 250 250 250 250 249 249 248 248 247 247
262 262 262 263 263 263 263 262 262 261 261 261 260 260 260 259 257 255 255 255 255 254 254 255 255 255 254 254 253 253 252 252 252 251 251 251 251 250 249 249 248 248
262 262 262 262 263 263 263 263 263 262 262 262 261 261 261 260 260 258 257 256 256 255 255 254 254 253 254 254 255 255 254 254 253 253 252 252 252 252 251 250 249 249
263 263 263 263 264 264 264 264 264 263 263 263 263 262 262 261 261 260 260 259 258 257 256 255 255 255 255 255 255 255 255 254 254 254 253 253 252 252 252 252 251 250
263 263 264 265 265 265 265 265 264 264 264 264 264 264 264 263 262 261 261 260 260 259 258 257 257 256 256 256 255 255 255 255 255 255 254 254 253 253 253 253 252 252
263 263 263 264 264 265 265 265 265 265 264 264 264 264 265 264 264 263 262 261 261 260 260 259 258 258 258 257 257 257 257 257 256 256 256 255 254 254 254 254 254 254
262 262 262 262 263 263 264 264 264 264 264 264 264 264 264 264 265 265 264 263 262 261 260 260 260 260 260 260 259 258 258 257 257 256 256 256 256 256 255 255 254 254
261 261 261 262 262 262 263 263 263 264 263 263 263 263 263 263 264 264 264 264 264 263 262 261 261 261 261 260 259 258 258 258 257 257 257 257 257 257 256 255 255 254
Height
10567 10568 10570 10571 10572 10573 10574 10575 10577 10578 10579 10581 10581 10582 10583 10584 10585 10586 10586 10587 10588 10590 10591 10592 10593 10594 10596 10597 10599 10601 10602 10604 10605 10607 10608 10609 10611 10613 10615 10617 10619 10622
10561 10563 10564 10565 10566 10567 10568 10569 10570 10572 10573 10574 10576 10577 10577 10579 10580 10580 10581 10582 10583 10585 10586 10587 10588 10589 10591 10593 10594 10596 10598 10600 10601 10603 10604 10605 10606 10608 10609 10611 10613 10615
10556 10557 10559 10560 10561 10561 10562 10563 10564 10565 10566 10567 10569 10570 10571 10572 10574 10575 10576 10577 10578 10579 10581 10582 10583 10584 10586 10587 10589 10591 10593 10595 10597 10598 10599 10600 10602 10603 10604 10606 10607 10608
10550 10551 10552 10554 10555 10555 10556 10557 10557 10558 10559 10561 10562 10564 10565 10566 10568 10569 10570 10572 10573 10574 10575 10576 10578 10579 10580 10581 10583 10585 10587 10589 10591 10592 10594 10595 10597 10598 10599 10600 10602 10603
10542 10544 10545 10547 10547 10548 10549 10550 10551 10552 10554 10555 10556 10558 10559 10560 10562 10563 10565 10566 10568 10569 10570 10571 10572 10573 10574 10575 10577 10579 10580 10582 10584 10586 10587 10589 10590 10592 10593 10595 10596 10598
10533 10536 10538 10540 10540 10540 10542 10543 10545 10546 10547 10548 10550 10551 10552 10553 10555 10556 10558 10560 10562 10563 10564 10565 10565 10566 10567 10568 10570 10572 10574 10575 10577 10578 10580 10581 10583 10585 10587 10588 10590 10591
10524 10528 10530 10531 10532 10532 10534 10536 10537 10538 10540 10541 10542 10543 10544 10545 10546 10548 10550 10552 10554 10556 10557 10558 10558 10559 10560 10561 10563 10565 10567 10568 10569 10571 10572 10574 10576 10578 10579 10581 10583 10584
10515 10518 10521 10522 10523 10523 10524 10526 10528 10530 10532 10533 10533 10534 10535 10536 10538 10539 10541 10543 10545 10547 10549 10550 10551 10551 10552 10554 10556 10558 10560 10561 10562 10563 10565 10567 10568 10570 10572 10573 10575 10577
10505 10508 10510 10512 10513 10514 10515 10517 10519 10521 10523 10524 10525 10526 10526 10528 10529 10531 10532 10535 10537 10539 10540 10541 10542 10543 10544 10546 10548 10550 10551 10552 10554 10556 10558 10559 10561 10562 10563 10565 10567 10568
10495 10496 10500 10502 10503 10505 10506 10507 10509 10511 10513 10513 10514 10516 10517 10518 10520 10522 10524 10526 10528 10530 10532 10532 10533 10533 10535 10537 10539 10541 10542 10543 10545 10547 10549 10551 10552 10554 10555 10556 10558 10559
10485 10485 10488 10491 10493 10495 10496 10497 10500 10502 10502 10503 10504 10506 10507 10510 10512 10513 10515 10517 10519 10521 10522 10523 10523 10523 10526 10528 10530 10532 10533 10534 10536 10538 10539 10541 10543 10544 10546 10548 10549 10551
10475 10475 10478 10482 10485 10486 10486 10487 10489 10491 10492 10493 10494 10496 10499 10501 10503 10505 10507 10509 10510 10512 10512 10512 10513 10514 10516 10519 10521 10523 10524 10525 10527 10529 10530 10532 10533 10535 10537 10539 10541 10543
10465 10465 10469 10473 10476 10477 10476 10476 10478 10479 10480 10482 10483 10485 10488 10490 10493 10497 10499 10500 10501 10501 10501 10501 10503 10504 10507 10509 10512 10514 10515 10517 10519 10521 10522 10524 10525 10527 10529 10530 10532 10534
10453 10455 10459 10463 10465 10466 10466 10467 10467 10468 10469 10471 10472 10474 10476 10479 10485 10489 10488 10488 10488 10487 10488 10490 10492 10494 10496 10499 10502 10504 10506 10509 10510 10512 10514 10515 10517 10519 10520 10522 10523 10525
10443 10445 10449 10453 10455 10456 10457 10458 10459 10459 10459 10460 10461 10464 10466 10471 10476 10479 10478 10478 10476 10476 10478 10480 10481 10483 10485 10487 10491 10494 10497 10499 10500 10502 10503 10505 10508 10509 10511 10512 10514 10515
10434 10435 10438 10442 10445 10447 10448 10449 10450 10450 10450 10450 10451 10454 10457 10462 10467 10470 10471 10469 10464 10463 10467 10469 10470 10472 10473 10475 10479 10482 10486 10489 10490 10491 10493 10495 10497 10499 10500 10502 10503 10505
10423 10424 10426 10430 10433 10436 10438 10440 10440 10440 10440 10440 10442 10445 10448 10452 10456 10459 10461 10458 10451 10451 10457 10459 10460 10461 10461 10463 10466 10469 10473 10477 10480 10481 10482 10484 10487 10488 10490 10492 10493 10495
10412 10413 10414 10417 10420 10424 10427 10429 10430 10430 10430 10430 10432 10435 10438 10442 10446 10448 10448 10446 10443 10444 10447 10448 10448 10448 10448 10450 10452 10455 10460 10466 10468 10469 10471 10473 10475 10477 10479 10481 10482 10484
10402 10403 10404 10406 10408 10412 10415 10417 10418 10419 10419 10420 10421 10423 10426 10430 10434 10437 10437 10435 10435 10437 10438 10436 10434 10435 10435 10436 10439 10444 10451 10455 10455 10456 10458 10460 10463 10465 10466 10468 10470 10472
10392 10393 10394 10396 10397 10401 10404 10405 10407 10408 10408 10409 10410 10411 10414 10417 10422 10425 10426 10424 10425 10427 10428 10424 10423 10423 10423 10424 10429 10437 10442 10443 10443 10444 10445 10447 10449 10451 10452 10455 10458 10460
10380 10382 10384 10386 10387 10390 10393 10394 10396 10396 10397 10398 10399 10400 10402 10405 10408 10411 10413 10413 10415 10416 10416 10413 10411 10411 10412 10416 10423 10429 10430 10430 10430 10431 10432 10434 10436 10437 10438 10441 10445 10447
10368 10371 10373 10375 10377 10379 10382 10384 10385 10385 10386 10387 10388 10389 10391 10393 10395 10398 10399 10401 10403 10404 10404 10403 10402 10401 10404 10409 10415 10417 10416 10415 10416 10417 10419 10421 10421 10422 10424 10428 10431 10433
10357 10360 10362 10364 10366 10368 10371 10372 10373 10374 10375 10376 10377 10378 10379 10380 10383 10385 10386 10388 10389 10391 10392 10392 10392 10391 10394 10400 10404 10403 10403 10403 10403 10404 10406 10407 10407 10409 10411 10414 10417 10419
10347 10350 10352 10354 10355 10356 10358 10360 10361 10363 10364 10365 10366 10366 10367 10367 10369 10372 10373 10374 10376 10379 10379 10378 10378 10380 10384 10390 10393 10392 10392 10392 10392 10392 10393 10393 10394 10397 10399 10401 10403 10405
10336 10338 10341 10343 10344 10346 10347 10349 10349 10351 10352 10353 10354 10355 10355 10355 10356 10358 10359 10360 10363 10366 10366 10366 10367 10370 10373 10377 10379 10379 10380 10380 10379 10379 10380 10381 10383 10385 10386 10387 10389 10390
10324 10327 10330 10332 10333 10335 10336 10337 10338 10339 10340 10340 10341 10342 10343 10344 10345 10346 10346 10346 10348 10351 10353 10355 10357 10359 10360 10362 10364 10366 10367 10368 10367 10368 10369 10371 10372 10372 10373 10374 10375 10376